Location: Shenandoah County Park
(38.9356°N, 78.4524°W)
Time: 07:42:19
(UTC-04:00)

SR - Pass Details

Date: 12 February 2023
Orbit: 583 x 866 km, 66.7° (Epoch: 28 March)

Event Time Altitude Azimuth Distance (km) Brightness Sun altitude
Rises 12:03:10 0° 202° (SSW) 3,243 ? 37.1°
Reaches altitude 10° 12:05:39 10° 201° (SSW) 2,275 ? 37.2°
Maximum altitude 12:10:49 75° 116° (ESE) 738 ? 37.3°
Drops below altitude 10° 12:15:35 10° 32° (NNE) 2,101 ? 37.4°
Sets 12:17:48 0° 31° (NNE) 2,976 ? 37.4°
